SCP
-0 -0 -0 -0 0 2 2 2 2 1 1 1 1 0 0 0 0 0 0 0 0 0 0 0 0 0 0 0 0 0 0 0
0 0 -0 -0 0 0 2 2 2 1 1 1 1 0 0 0 0 0 0 0 0 0 0 0 0 0 0 0 0 0 0 0
-0 0 0 -0 0 0 2 2 2 2 2 1 1 0 0 0 0 0 0 0 0 0 0 0 0 0 0 0 0 0 0 0
0 -0 0 0 -0 0 1 2 2 2 2 1 1 1 0 0 0 0 0 0 0 0 0 0 0 0 0 0 0 0 0 0
0 -0 0 0 0 -0 0 2 2 2 2 2 1 1 0 0 0 0 0 0 0 0 0 0 0 0 0 0 0 0 0 0
0 0 0 0 0 -0 -0 1 2 2 2 2 2 1 0 0 0 0 0 0 0 0 0 0 0 0 0 0 0 0 0 0
0 0 0 0 0 0 -0 0 1 2 3 3 2 1 0 0 0 0 0 0 0 0 0 0 0 0 0 0 0 0 0 0
0 0 0 0 0 0 0 0 2 2 3 2 1 0 0 0 0 0 0 0 0 0 0 1 0 0 0 0 0 0 0 0
0 0 0 0 0 0 0 0 2 3 2 1 1 0 0 0 0 0 0 0 0 0 0 0 0 0 0 0 0 0 0 0
0 0 0 0 0 1 1 0 2 3 2 2 2 1 1 1 0 0 0 0 0 0 1 0 0 0 0 0 0 0 0 0
0 0 0 0 0 1 1 1 1 2 2 2 4 1 1 1 0 1 0 0 1 1 0 0 0 0 0 0 0 0 0 0
0 0 0 0 0 1 2 2 1 1 2 2 2 1 1 1 1 1 1 1 1 1 0 0 0 0 0 0 0 0 0 0
0 0 0 0 0 0 1 2 1 1 1 2 2 1 2 4 2 1 3 2 1 0 0 0 0 0 0 0 0 0 0 0
0 0 0 0 0 0 1 2 2 1 1 1 3 2 1 1 1 1 0 0 0 0 0 0 0 0 0 0 0 0 0 0
0 0 0 0 0 0 1 1 2 1 1 1 3 2 3 1 1 1 0 0 0 0 0 0 0 0 0 0 0 0 0 0
0 0 0 0 0 0 0 1 1 2 1 2 3 3 2 1 1 0 0 0 0 0 0 0 0 0 0 0 0 0 0 0
0 0 0 0 0 0 0 0 2 1 2 4 6 3 1 1 1 1 0 0 0 0 0 0 0 0 -0 -0 0 0 0 0
0 0 0 0 0 0 0 1 2 1 1 2 4 3 2 1 1 1 0 0 0 0 0 0 0 0 0 0 0 0 0 0
0 0 0 0 0 0 0 1 2 2 2 3 2 2 2 2 1 0 0 0 0 0 0 0 0 0 -0 0 0 0 0 0
0 0 0 0 0 0 0 0 1 4 2 3 2 2 2 1 0 0 0 0 0 0 0 0 0 -0 0 0 0 0 0 0
Wind_Speed_500mb
25 24 19 18 23 31 36 47 56 55 56 54 51 48 45 42 39 38 38 36 36 33 29 25 22 19 18 16 13 11 11 15
28 27 22 16 24 34 37 43 47 54 53 53 52 50 46 44 41 39 38 38 37 35 32 27 23 20 18 15 13 13 12 12
30 25 24 17 16 30 50 48 52 52 56 55 54 51 46 44 41 39 35 36 35 34 31 28 24 21 15 16 15 14 15 16
32 32 28 25 18 33 46 63 61 55 60 56 53 50 47 43 42 37 35 35 33 33 31 25 20 18 16 14 15 16 17 17
38 33 33 30 23 23 48 55 66 69 64 58 54 52 50 44 39 38 36 34 34 34 31 26 18 19 17 13 14 16 12 11
22 18 27 33 28 28 42 50 56 70 67 61 57 56 52 46 40 38 36 34 34 35 33 25 17 18 16 17 15 15 16 17
32 29 21 25 36 36 36 55 58 64 68 65 56 52 49 45 41 38 35 34 34 38 34 25 19 17 17 19 15 17 19 23
25 27 32 22 34 40 39 46 66 57 70 68 60 55 53 49 44 41 37 37 33 31 31 25 23 19 15 14 14 19 24 28
28 26 30 33 31 42 42 40 65 69 58 70 64 59 59 54 49 43 37 40 35 28 24 22 17 16 14 10 15 25 30 27
33 32 30 34 33 42 46 43 59 68 64 64 73 63 54 52 53 47 40 43 37 28 24 21 16 15 13 7 16 21 23 17
39 37 36 32 37 39 51 48 52 69 61 64 64 64 55 61 60 53 45 45 37 30 25 24 23 16 12 7 15 15 15 8
41 44 48 45 37 33 37 49 54 63 73 58 67 83 89 78 68 55 46 47 40 37 30 25 19 15 9 5 10 6 10 12
38 39 46 52 49 43 33 42 55 60 65 69 59 71 77 73 63 57 54 53 46 38 29 24 15 15 4 6 9 7 11 12
23 26 32 45 50 49 42 33 43 56 61 70 68 75 72 64 69 65 63 56 52 48 40 25 14 4 7 10 7 10 14 13
18 22 24 39 42 46 41 40 40 50 52 64 75 77 59 62 74 81 77 69 64 45 30 14 5 5 6 12 13 15 12 11
9 17 26 24 47 43 34 46 43 48 51 60 77 74 75 66 81 83 73 67 53 41 38 29 24 11 8 11 21 16 6 5
14 17 15 30 37 51 44 42 45 43 58 64 82 83 74 71 71 71 66 58 50 45 37 38 21 15 25 13 18 9 0 5
22 24 24 21 31 46 52 42 49 40 56 76 77 76 72 70 69 72 64 60 57 45 39 28 28 26 21 19 14 7 4 7
29 35 33 28 29 33 49 48 46 44 52 60 72 77 72 73 70 73 72 65 53 52 38 36 31 28 23 16 12 9 6 10
39 39 41 39 30 31 42 49 46 54 37 72 78 72 80 69 77 78 69 63 53 41 38 34 30 26 22 16 12 9 11 10
Wind_Direction_500mb
333 342 347 283 225 201 198 201 199 197 200 201 201 200 201 202 202 201 203 203 203 202 202 202 206 211 217 219 215 203 180 202
314 323 319 347 246 220 210 210 204 204 201 203 206 208 206 208 208 208 209 207 209 207 206 207 210 215 217 207 187 187 200 217
304 308 299 295 262 235 227 211 210 213 208 207 210 212 212 214 217 216 212 213 215 212 210 209 214 219 211 197 202 208 226 239
287 290 288 276 274 235 230 222 216 212 215 212 214 215 218 220 223 222 217 215 216 215 211 209 207 190 187 205 220 228 253 248
276 269 267 270 268 236 224 225 223 221 217 216 216 216 217 222 226 224 219 216 213 209 206 200 204 195 206 224 239 239 256 264
249 267 262 259 249 234 218 227 225 225 221 217 216 217 218 218 223 225 221 213 211 204 196 200 203 203 217 238 249 264 267 274
272 268 267 263 246 237 230 223 225 221 216 215 215 217 219 221 222 224 221 213 204 200 199 204 207 213 236 254 259 271 272 281
280 265 263 275 240 236 235 236 219 218 214 209 209 211 213 217 219 221 217 208 196 198 205 208 213 223 249 240 276 283 281 287
272 273 263 256 248 229 226 229 215 211 197 200 204 213 208 213 216 218 214 206 200 202 195 204 199 204 229 258 289 288 289 290
249 260 271 254 260 235 234 224 224 219 205 209 203 210 210 215 216 214 208 202 199 202 199 205 198 205 219 276 295 293 288 295
243 247 254 263 259 253 227 221 220 221 221 207 210 209 214 214 213 209 203 197 195 195 199 210 194 206 230 275 323 295 282 291
252 250 252 252 263 264 249 229 227 218 218 208 206 203 203 209 210 200 195 191 193 187 189 197 204 215 245 313 3 312 286 288
235 243 242 237 246 257 268 240 229 224 216 212 210 209 208 204 209 192 189 185 186 182 194 196 195 221 197 56 16 304 279 301
246 239 230 225 229 238 249 245 226 221 225 222 216 211 209 201 200 193 185 183 189 178 188 184 172 173 87 53 16 281 275 312
253 235 231 231 231 225 236 236 225 219 213 207 210 206 210 204 202 197 186 185 187 170 174 185 136 79 95 45 334 290 306 319
281 264 240 251 234 236 228 236 220 216 211 203 206 207 213 210 203 198 191 189 177 191 185 181 185 186 321 310 274 253 284 333
326 310 297 256 247 237 234 234 224 213 206 195 194 203 206 209 204 199 193 188 186 183 193 201 191 222 230 222 225 220 48 19
339 331 311 285 263 243 232 236 238 211 196 192 195 201 205 213 199 189 190 185 183 178 184 188 193 204 195 200 183 151 91 37
325 323 314 295 279 257 230 230 236 217 209 199 199 208 214 203 207 197 183 187 190 189 184 187 180 172 175 183 173 128 76 50
312 307 307 289 292 278 239 224 224 218 199 204 196 203 196 202 201 188 188 191 183 184 178 166 166 170 164 165 146 118 82 54
Wind_Speed_850mb
25 24 19 18 23 31 36 47 56 55 56 54 51 48 45 42 39 38 38 36 36 33 29 25 22 19 18 16 13 11 11 15
28 27 22 16 24 34 37 43 47 54 53 53 52 50 46 44 41 39 38 38 37 35 32 27 23 20 18 15 13 13 12 12
30 25 24 17 16 30 50 48 52 52 56 55 54 51 46 44 41 39 35 36 35 34 31 28 24 21 15 16 15 14 15 16
32 32 28 25 18 33 46 63 61 55 60 56 53 50 47 43 42 37 35 35 33 33 31 25 20 18 16 14 15 16 17 17
38 33 33 30 23 23 48 55 66 69 64 58 54 52 50 44 39 38 36 34 34 34 31 26 18 19 17 13 14 16 12 11
22 18 27 33 28 28 42 50 56 70 67 61 57 56 52 46 40 38 36 34 34 35 33 25 17 18 16 17 15 15 16 17
32 29 21 25 36 36 36 55 58 64 68 65 56 52 49 45 41 38 35 34 34 38 34 25 19 17 17 19 15 17 19 23
25 27 32 22 34 40 39 46 66 57 70 68 60 55 53 49 44 41 37 37 33 31 31 25 23 19 15 14 14 19 24 28
28 26 30 33 31 42 42 40 65 69 58 70 64 59 59 54 49 43 37 40 35 28 24 22 17 16 14 10 15 25 30 27
33 32 30 34 33 42 46 43 59 68 64 64 73 63 54 52 53 47 40 43 37 28 24 21 16 15 13 7 16 21 23 17
39 37 36 32 37 39 51 48 52 69 61 64 64 64 55 61 60 53 45 45 37 30 25 24 23 16 12 7 15 15 15 8
41 44 48 45 37 33 37 49 54 63 73 58 67 83 89 78 68 55 46 47 40 37 30 25 19 15 9 5 10 6 10 12
38 39 46 52 49 43 33 42 55 60 65 69 59 71 77 73 63 57 54 53 46 38 29 24 15 15 4 6 9 7 11 12
23 26 32 45 50 49 42 33 43 56 61 70 68 75 72 64 69 65 63 56 52 48 40 25 14 4 7 10 7 10 14 13
18 22 24 39 42 46 41 40 40 50 52 64 75 77 59 62 74 81 77 69 64 45 30 14 5 5 6 12 13 15 12 11
9 17 26 24 47 43 34 46 43 48 51 60 77 74 75 66 81 83 73 67 53 41 38 29 24 11 8 11 21 16 6 5
14 17 15 30 37 51 44 42 45 43 58 64 82 83 74 71 71 71 66 58 50 45 37 38 21 15 25 13 18 9 0 5
22 24 24 21 31 46 52 42 49 40 56 76 77 76 72 70 69 72 64 60 57 45 39 28 28 26 21 19 14 7 4 7
29 35 33 28 29 33 49 48 46 44 52 60 72 77 72 73 70 73 72 65 53 52 38 36 31 28 23 16 12 9 6 10
39 39 41 39 30 31 42 49 46 54 37 72 78 72 80 69 77 78 69 63 53 41 38 34 30 26 22 16 12 9 11 10
Wind_Direction_850mb
333 342 347 283 225 201 198 201 199 197 200 201 201 200 201 202 202 201 203 203 203 202 202 202 206 211 217 219 215 203 180 202
314 323 319 347 246 220 210 210 204 204 201 203 206 208 206 208 208 208 209 207 209 207 206 207 210 215 217 207 187 187 200 217
304 308 299 295 262 235 227 211 210 213 208 207 210 212 212 214 217 216 212 213 215 212 210 209 214 219 211 197 202 208 226 239
287 290 288 276 274 235 230 222 216 212 215 212 214 215 218 220 223 222 217 215 216 215 211 209 207 190 187 205 220 228 253 248
276 269 267 270 268 236 224 225 223 221 217 216 216 216 217 222 226 224 219 216 213 209 206 200 204 195 206 224 239 239 256 264
249 267 262 259 249 234 218 227 225 225 221 217 216 217 218 218 223 225 221 213 211 204 196 200 203 203 217 238 249 264 267 274
272 268 267 263 246 237 230 223 225 221 216 215 215 217 219 221 222 224 221 213 204 200 199 204 207 213 236 254 259 271 272 281
280 265 263 275 240 236 235 236 219 218 214 209 209 211 213 217 219 221 217 208 196 198 205 208 213 223 249 240 276 283 281 287
272 273 263 256 248 229 226 229 215 211 197 200 204 213 208 213 216 218 214 206 200 202 195 204 199 204 229 258 289 288 289 290
249 260 271 254 260 235 234 224 224 219 205 209 203 210 210 215 216 214 208 202 199 202 199 205 198 205 219 276 295 293 288 295
243 247 254 263 259 253 227 221 220 221 221 207 210 209 214 214 213 209 203 197 195 195 199 210 194 206 230 275 323 295 282 291
252 250 252 252 263 264 249 229 227 218 218 208 206 203 203 209 210 200 195 191 193 187 189 197 204 215 245 313 3 312 286 288
235 243 242 237 246 257 268 240 229 224 216 212 210 209 208 204 209 192 189 185 186 182 194 196 195 221 197 56 16 304 279 301
246 239 230 225 229 238 249 245 226 221 225 222 216 211 209 201 200 193 185 183 189 178 188 184 172 173 87 53 16 281 275 312
253 235 231 231 231 225 236 236 225 219 213 207 210 206 210 204 202 197 186 185 187 170 174 185 136 79 95 45 334 290 306 319
281 264 240 251 234 236 228 236 220 216 211 203 206 207 213 210 203 198 191 189 177 191 185 181 185 186 321 310 274 253 284 333
326 310 297 256 247 237 234 234 224 213 206 195 194 203 206 209 204 199 193 188 186 183 193 201 191 222 230 222 225 220 48 19
339 331 311 285 263 243 232 236 238 211 196 192 195 201 205 213 199 189 190 185 183 178 184 188 193 204 195 200 183 151 91 37
325 323 314 295 279 257 230 230 236 217 209 199 199 208 214 203 207 197 183 187 190 189 184 187 180 172 175 183 173 128 76 50
312 307 307 289 292 278 239 224 224 218 199 204 196 203 196 202 201 188 188 191 183 184 178 166 166 170 164 165 146 118 82 54